TAP298 FNBJ-LPPT

Flight info

Callsign TAP298
Flight time 7h 16m
Altitude 36000
Route VNA UR526 LIKAD UY339 MESIN UG861 DLA UA604 JOS/N0474F380 UA604 MNA UM999 ALM UN726 BAMBA DCT ORTOP DCT VATZI
Aircraft A339/H-SADE1E2E3GHIJ3J5M1P2RWXY/LB2D1

Departure

Time 2026-04-10 09:27
Airport Dr. Antonio Agostinho Neto International Airport (FNBJ)

Arrival

Time 2026-04-10 16:43
Airport Lisbon Humberto Delgado Airport (LPPT)
Time Latitude Longitude Altitude Speed Heading
2026-04-10 09:04 -9.05279 13.49556 547 ft 0 kts 89°
2026-04-10 09:11 -9.05279 13.49555 547 ft 1 kts 89°
2026-04-10 09:11 -9.05280 13.49548 547 ft 1 kts 89°
2026-04-10 09:11 -9.05280 13.49541 547 ft 1 kts 89°
2026-04-10 09:11 -9.05280 13.49533 547 ft 1 kts 89°
2026-04-10 09:12 -9.05280 13.49526 547 ft 1 kts 89°
2026-04-10 09:12 -9.05280 13.49518 547 ft 1 kts 89°
2026-04-10 09:12 -9.05281 13.49505 547 ft 2 kts 89°
2026-04-10 09:12 -9.05281 13.49490 547 ft 2 kts 89°
2026-04-10 09:13 -9.05281 13.49476 547 ft 2 kts 89°
2026-04-10 09:13 -9.05282 13.49462 547 ft 2 kts 94°
2026-04-10 09:13 -9.05281 13.49448 547 ft 2 kts 108°
2026-04-10 09:13 -9.05280 13.49443 547 ft 1 kts 111°
2026-04-10 09:14 -9.05275 13.49431 547 ft 2 kts 120°
2026-04-10 09:14 -9.05268 13.49418 547 ft 2 kts 129°
2026-04-10 09:14 -9.05259 13.49407 547 ft 2 kts 139°
2026-04-10 09:14 -9.05254 13.49402 547 ft 0 kts 139°
2026-04-10 09:17 -9.05259 13.49407 547 ft 4 kts 139°
2026-04-10 09:17 -9.05305 13.49445 547 ft 13 kts 141°
2026-04-10 09:17 -9.05381 13.49505 547 ft 14 kts 142°
2026-04-10 09:18 -9.05459 13.49566 547 ft 14 kts 142°
2026-04-10 09:18 -9.05538 13.49626 547 ft 14 kts 143°
2026-04-10 09:18 -9.05616 13.49686 547 ft 14 kts 143°
2026-04-10 09:18 -9.05693 13.49745 547 ft 14 kts 143°
2026-04-10 09:19 -9.05770 13.49804 547 ft 14 kts 143°
2026-04-10 09:19 -9.05846 13.49862 547 ft 14 kts 143°
2026-04-10 09:19 -9.05921 13.49919 547 ft 13 kts 143°
2026-04-10 09:19 -9.05994 13.49975 548 ft 13 kts 143°
2026-04-10 09:20 -9.06066 13.50012 550 ft 8 kts 184°
2026-04-10 09:20 -9.06106 13.49976 551 ft 9 kts 231°
2026-04-10 09:20 -9.06156 13.49909 551 ft 15 kts 233°
2026-04-10 09:20 -9.06224 13.49817 551 ft 17 kts 233°
2026-04-10 09:21 -9.06294 13.49721 550 ft 17 kts 233°
2026-04-10 09:21 -9.06363 13.49627 550 ft 17 kts 233°
2026-04-10 09:21 -9.06432 13.49532 549 ft 17 kts 233°
2026-04-10 09:21 -9.06503 13.49435 549 ft 17 kts 233°
2026-04-10 09:22 -9.06573 13.49339 548 ft 17 kts 233°
2026-04-10 09:22 -9.06645 13.49242 548 ft 17 kts 233°
2026-04-10 09:22 -9.06717 13.49145 548 ft 17 kts 233°
2026-04-10 09:22 -9.06777 13.49066 548 ft 13 kts 227°
2026-04-10 09:23 -9.06855 13.49058 549 ft 11 kts 162°
2026-04-10 09:23 -9.06901 13.49105 551 ft 8 kts 121°
2026-04-10 09:23 -9.06925 13.49146 553 ft 6 kts 120°
2026-04-10 09:23 -9.06943 13.49180 553 ft 5 kts 119°
2026-04-10 09:24 -9.06937 13.49195 553 ft 2 kts 65°
2026-04-10 09:24 -9.06920 13.49214 553 ft 4 kts 53°
2026-04-10 09:24 -9.06916 13.49219 553 ft 0 kts 53°
2026-04-10 09:26 -9.06911 13.49227 553 ft 8 kts 53°
2026-04-10 09:26 -9.06722 13.49481 555 ft 83 kts 53°
2026-04-10 09:26 -9.06237 13.50133 567 ft 146 kts 53°
2026-04-10 09:27 -9.05526 13.51090 601 ft 190 kts 53°
2026-04-10 09:27 -9.04753 13.52122 1300 ft 182 kts 53°
2026-04-10 09:27 -9.03983 13.53148 2036 ft 185 kts 53°
2026-04-10 09:27 -9.03197 13.54222 2553 ft 195 kts 54°
2026-04-10 09:28 -9.02298 13.55356 2766 ft 219 kts 44°
2026-04-10 09:28 -9.01223 13.56513 3050 ft 238 kts 52°
2026-04-10 09:28 -9.00181 13.57901 3311 ft 257 kts 53°
2026-04-10 09:28 -8.99077 13.59384 3662 ft 267 kts 53°
2026-04-10 09:29 -8.97949 13.60896 4200 ft 270 kts 53°
2026-04-10 09:29 -8.96733 13.62359 4702 ft 274 kts 41°
2026-04-10 09:29 -8.95065 13.63280 5251 ft 276 kts 16°
2026-04-10 09:29 -8.93176 13.63409 5780 ft 279 kts 352°
2026-04-10 09:30 -8.91364 13.62712 6240 ft 284 kts 326°
2026-04-10 09:30 -8.89981 13.61269 6744 ft 288 kts 301°
2026-04-10 09:30 -8.89323 13.59382 7210 ft 292 kts 276°
2026-04-10 09:30 -8.89318 13.57325 7711 ft 293 kts 266°
2026-04-10 09:31 -8.89407 13.55244 8135 ft 298 kts 269°
2026-04-10 09:31 -8.89340 13.53131 8605 ft 301 kts 274°
2026-04-10 09:31 -8.89113 13.51001 9083 ft 304 kts 278°
2026-04-10 09:31 -8.88903 13.49597 9448 ft 306 kts 279°
2026-04-10 09:32 -8.88422 13.46771 10098 ft 310 kts 281°
2026-04-10 09:32 -8.88032 13.44578 10277 ft 325 kts 281°
2026-04-10 09:32 -8.87625 13.42270 10431 ft 340 kts 281°
2026-04-10 09:32 -8.87348 13.40684 10521 ft 350 kts 281°
2026-04-10 09:33 -8.86915 13.38206 10749 ft 360 kts 281°
2026-04-10 09:33 -8.86312 13.35745 11148 ft 361 kts 293°
2026-04-10 09:33 -8.85021 13.33609 11601 ft 359 kts 313°
2026-04-10 09:33 -8.83108 13.32017 12071 ft 356 kts 332°
2026-04-10 09:34 -8.80845 13.31014 12531 ft 356 kts 342°
2026-04-10 09:34 -8.78491 13.30194 12947 ft 359 kts 343°
2026-04-10 09:34 -8.76130 13.29326 13398 ft 362 kts 341°
2026-04-10 09:34 -8.73780 13.28360 13862 ft 365 kts 339°
2026-04-10 09:35 -8.71445 13.27324 14259 ft 368 kts 338°
2026-04-10 09:35 -8.69129 13.26257 14662 ft 371 kts 338°
2026-04-10 09:35 -8.66765 13.25151 15073 ft 374 kts 338°
2026-04-10 09:35 -8.64389 13.24040 15490 ft 376 kts 338°
2026-04-10 09:36 -8.62035 13.22945 15857 ft 379 kts 338°
2026-04-10 09:36 -8.59629 13.21822 16223 ft 381 kts 338°
2026-04-10 09:36 -8.57196 13.20687 16598 ft 384 kts 338°
2026-04-10 09:36 -8.54788 13.19566 16992 ft 385 kts 338°
2026-04-10 09:37 -8.52336 13.18427 17317 ft 389 kts 338°
2026-04-10 09:37 -8.49867 13.17280 17670 ft 391 kts 338°
2026-04-10 09:37 -8.47385 13.16126 17994 ft 393 kts 338°
2026-04-10 09:37 -8.44916 13.14976 18356 ft 396 kts 338°
2026-04-10 09:38 -8.42398 13.13807 18712 ft 398 kts 338°
2026-04-10 09:38 -8.39891 13.12645 19061 ft 400 kts 338°
2026-04-10 09:38 -8.37355 13.11467 19406 ft 402 kts 338°
2026-04-10 09:38 -8.34799 13.10281 19743 ft 404 kts 338°
2026-04-10 09:39 -8.32226 13.09086 20096 ft 406 kts 338°
2026-04-10 09:39 -8.29644 13.07891 20421 ft 409 kts 338°
2026-04-10 09:39 -8.27075 13.06699 20753 ft 411 kts 338°
2026-04-10 09:39 -8.24458 13.05484 21076 ft 413 kts 338°
2026-04-10 09:40 -8.21834 13.04265 21401 ft 415 kts 338°
2026-04-10 09:40 -8.19195 13.03041 21725 ft 417 kts 338°
2026-04-10 09:40 -8.16548 13.01803 22023 ft 420 kts 338°
2026-04-10 09:40 -8.13918 13.00579 22339 ft 422 kts 338°
2026-04-10 09:41 -8.11244 12.99343 22669 ft 424 kts 338°
2026-04-10 09:41 -8.08546 12.98096 22964 ft 426 kts 338°
2026-04-10 09:41 -8.05837 12.96843 23263 ft 428 kts 338°
2026-04-10 09:41 -8.03127 12.95588 23587 ft 430 kts 338°
2026-04-10 09:42 -8.00424 12.94340 23876 ft 432 kts 338°
2026-04-10 09:42 -7.97686 12.93072 24177 ft 434 kts 338°
2026-04-10 09:42 -7.94927 12.91792 24459 ft 436 kts 338°
2026-04-10 09:42 -7.92154 12.90513 24766 ft 438 kts 338°
2026-04-10 09:43 -7.89372 12.89227 25054 ft 439 kts 338°
2026-04-10 09:43 -7.86588 12.87933 25330 ft 441 kts 338°
2026-04-10 09:43 -7.83825 12.86649 25620 ft 443 kts 338°
2026-04-10 09:43 -7.81021 12.85347 25913 ft 444 kts 338°
2026-04-10 09:44 -7.78194 12.84037 26192 ft 446 kts 338°
2026-04-10 09:44 -7.75361 12.82731 26485 ft 447 kts 338°
2026-04-10 09:44 -7.72520 12.81416 26742 ft 449 kts 338°
2026-04-10 09:44 -7.69667 12.80095 27011 ft 451 kts 337°
2026-04-10 09:45 -7.66842 12.78784 27277 ft 453 kts 337°
2026-04-10 09:45 -7.63961 12.77448 27553 ft 454 kts 337°
2026-04-10 09:45 -7.61083 12.76117 27810 ft 456 kts 337°
2026-04-10 09:45 -7.58199 12.74784 28066 ft 457 kts 337°
2026-04-10 09:46 -7.55287 12.73438 28321 ft 459 kts 337°
2026-04-10 09:46 -7.52418 12.72112 28571 ft 460 kts 337°
2026-04-10 09:46 -7.49501 12.70763 28827 ft 462 kts 337°
2026-04-10 09:46 -7.46566 12.69404 29059 ft 463 kts 337°
2026-04-10 09:47 -7.43620 12.68043 29296 ft 465 kts 337°
2026-04-10 09:47 -7.40714 12.66701 29545 ft 466 kts 337°
2026-04-10 09:47 -7.37755 12.65334 29787 ft 467 kts 337°
2026-04-10 09:47 -7.34784 12.63964 30025 ft 469 kts 336°
2026-04-10 09:48 -7.31806 12.62589 30274 ft 470 kts 336°
2026-04-10 09:48 -7.28820 12.61209 30536 ft 472 kts 336°
2026-04-10 09:48 -7.25859 12.59843 30772 ft 473 kts 336°
2026-04-10 09:48 -7.22853 12.58456 31026 ft 475 kts 336°
2026-04-10 09:49 -7.19839 12.57065 31282 ft 476 kts 336°
2026-04-10 09:49 -7.16810 12.55665 31533 ft 477 kts 336°
2026-04-10 09:49 -7.13786 12.54268 31777 ft 479 kts 336°
2026-04-10 09:49 -7.10780 12.52883 32011 ft 480 kts 336°
2026-04-10 09:50 -7.07732 12.51477 32238 ft 482 kts 336°
2026-04-10 09:50 -7.04679 12.50068 32440 ft 483 kts 336°
2026-04-10 09:50 -7.01611 12.48652 32631 ft 484 kts 335°
2026-04-10 09:50 -6.98577 12.47252 32803 ft 485 kts 335°
2026-04-10 09:51 -6.95469 12.45888 32951 ft 486 kts 338°
2026-04-10 09:51 -6.92315 12.44597 33076 ft 488 kts 338°
2026-04-10 09:51 -6.89153 12.43321 33206 ft 488 kts 338°
2026-04-10 09:51 -6.86000 12.42039 33327 ft 489 kts 338°
2026-04-10 09:52 -6.82874 12.40755 33431 ft 490 kts 338°
2026-04-10 09:52 -6.79716 12.39449 33554 ft 490 kts 338°
2026-04-10 09:52 -6.76556 12.38140 33692 ft 490 kts 338°
2026-04-10 09:52 -6.73401 12.36829 33809 ft 490 kts 338°
2026-04-10 09:53 -6.70251 12.35522 33936 ft 489 kts 338°
2026-04-10 09:53 -6.67103 12.34215 34065 ft 489 kts 338°
2026-04-10 09:53 -6.63981 12.32923 34182 ft 489 kts 338°
2026-04-10 09:53 -6.60827 12.31616 34310 ft 489 kts 337°
2026-04-10 09:54 -6.57680 12.30306 34435 ft 489 kts 338°
2026-04-10 09:54 -6.54524 12.29002 34529 ft 489 kts 338°
2026-04-10 09:54 -6.51375 12.27702 34647 ft 489 kts 338°
2026-04-10 09:54 -6.48252 12.26410 34777 ft 489 kts 338°
2026-04-10 09:55 -6.45097 12.25104 34910 ft 489 kts 338°
2026-04-10 09:55 -6.41943 12.23800 35037 ft 488 kts 338°
2026-04-10 09:55 -6.35675 12.21207 35253 ft 489 kts 338°
2026-04-10 09:56 -6.32529 12.19904 35395 ft 488 kts 338°
2026-04-10 09:56 -6.29382 12.18604 35498 ft 489 kts 337°
2026-04-10 09:56 -6.26231 12.17301 35626 ft 488 kts 337°
2026-04-10 09:56 -6.23088 12.16002 35758 ft 488 kts 337°
2026-04-10 09:57 -6.16819 12.13413 35957 ft 489 kts 337°
2026-04-10 09:57 -6.10512 12.10800 35961 ft 487 kts 337°
2026-04-10 09:58 -6.04270 12.08219 35961 ft 487 kts 337°
2026-04-10 09:58 -5.97982 12.05618 35962 ft 487 kts 337°
2026-04-10 09:59 -5.91737 12.03041 35962 ft 487 kts 337°
2026-04-10 09:59 -5.85445 12.00440 35963 ft 488 kts 337°
2026-04-10 10:00 -5.79174 11.97855 35965 ft 488 kts 337°
2026-04-10 10:00 -5.72881 11.95255 35965 ft 488 kts 337°
2026-04-10 10:01 -5.66628 11.92671 35966 ft 489 kts 337°
2026-04-10 10:01 -5.60320 11.90065 35969 ft 488 kts 337°
2026-04-10 10:02 -5.54066 11.87494 35964 ft 488 kts 337°
2026-04-10 10:02 -5.47782 11.84894 35966 ft 488 kts 337°
2026-04-10 10:03 -5.41489 11.82297 35965 ft 488 kts 337°
2026-04-10 10:03 -5.35238 11.79718 35963 ft 488 kts 337°
2026-04-10 10:04 -5.25788 11.75827 35962 ft 489 kts 337°
2026-04-10 10:05 -5.19477 11.73227 35964 ft 489 kts 337°
2026-04-10 10:05 -5.13097 11.70952 35964 ft 489 kts 345°
2026-04-10 10:06 -5.06373 11.69839 35962 ft 489 kts 356°
2026-04-10 10:06 -4.99615 11.69411 35962 ft 489 kts 356°
2026-04-10 10:07 -4.92813 11.68943 35962 ft 490 kts 356°
2026-04-10 10:07 -4.86011 11.68473 35958 ft 490 kts 356°
2026-04-10 10:08 -4.79193 11.68003 35960 ft 490 kts 356°
2026-04-10 10:08 -4.72430 11.67538 35962 ft 490 kts 356°
2026-04-10 10:09 -4.65607 11.67063 35957 ft 491 kts 356°
2026-04-10 10:09 -4.58804 11.66598 35959 ft 491 kts 356°
2026-04-10 10:10 -4.51970 11.66133 35965 ft 491 kts 356°
2026-04-10 10:10 -4.45175 11.65663 35964 ft 491 kts 356°
2026-04-10 10:11 -4.38333 11.65193 35968 ft 493 kts 356°
2026-04-10 10:11 -4.31486 11.64725 35974 ft 493 kts 356°
2026-04-10 10:12 -4.24682 11.64259 35975 ft 493 kts 356°
2026-04-10 10:12 -4.17815 11.63791 35970 ft 493 kts 356°
2026-04-10 10:13 -4.10950 11.63321 35969 ft 493 kts 356°
2026-04-10 10:13 -4.04130 11.62853 35967 ft 493 kts 356°
2026-04-10 10:14 -3.97289 11.62384 35964 ft 493 kts 356°
2026-04-10 10:14 -3.90439 11.61916 35957 ft 493 kts 356°
2026-04-10 10:15 -3.83587 11.61446 35968 ft 493 kts 356°
2026-04-10 10:15 -3.76739 11.60980 35971 ft 494 kts 356°
2026-04-10 10:16 -3.69912 11.60509 35978 ft 494 kts 356°
2026-04-10 10:16 -3.63097 11.59687 35976 ft 493 kts 347°
2026-04-10 10:17 -3.57560 11.58326 35969 ft 493 kts 346°
2026-04-10 10:17 -3.49791 11.56435 35969 ft 493 kts 346°
2026-04-10 10:18 -3.44236 11.55081 35971 ft 493 kts 346°
2026-04-10 10:18 -3.37551 11.53448 35977 ft 493 kts 346°
2026-04-10 10:19 -3.30869 11.51823 35976 ft 493 kts 346°
2026-04-10 10:19 -3.24223 11.50207 35975 ft 493 kts 346°
2026-04-10 10:20 -3.17545 11.48583 35969 ft 493 kts 346°
2026-04-10 10:20 -3.10863 11.46957 35971 ft 494 kts 346°
2026-04-10 10:21 -3.04220 11.45347 35972 ft 494 kts 346°
2026-04-10 10:21 -2.97541 11.43721 35978 ft 493 kts 346°
2026-04-10 10:22 -2.90854 11.42090 35971 ft 493 kts 346°
2026-04-10 10:22 -2.84179 11.40468 35970 ft 494 kts 346°
2026-04-10 10:23 -2.77500 11.38844 35970 ft 494 kts 346°
2026-04-10 10:23 -2.70871 11.37231 35971 ft 494 kts 346°
2026-04-10 10:24 -2.64188 11.35610 35962 ft 494 kts 346°
2026-04-10 10:24 -2.57483 11.33978 35965 ft 494 kts 346°
2026-04-10 10:25 -2.50806 11.32353 35961 ft 494 kts 346°
2026-04-10 10:25 -2.44170 11.30740 35961 ft 494 kts 346°
2026-04-10 10:26 -2.37495 11.29116 35961 ft 494 kts 346°
2026-04-10 10:26 -2.30804 11.27487 35959 ft 493 kts 346°
2026-04-10 10:27 -2.24130 11.25866 35959 ft 493 kts 346°
2026-04-10 10:27 -2.17455 11.24248 35961 ft 494 kts 346°
2026-04-10 10:28 -2.10809 11.22637 35962 ft 494 kts 346°
2026-04-10 10:28 -2.04134 11.21016 35961 ft 494 kts 346°
2026-04-10 10:29 -1.97439 11.19392 35962 ft 494 kts 346°
2026-04-10 10:29 -1.90754 11.17769 35963 ft 494 kts 346°
2026-04-10 10:30 -1.84066 11.16146 35962 ft 494 kts 346°
2026-04-10 10:30 -1.77392 11.14518 35963 ft 494 kts 346°
2026-04-10 10:31 -1.70749 11.12907 35962 ft 494 kts 346°
2026-04-10 10:31 -1.64068 11.11290 35961 ft 494 kts 346°
2026-04-10 10:32 -1.57379 11.09665 35965 ft 494 kts 346°
2026-04-10 10:32 -1.50700 11.08041 35964 ft 494 kts 346°
2026-04-10 10:33 -1.44016 11.06421 35953 ft 494 kts 346°
2026-04-10 10:33 -1.37306 11.04791 35952 ft 495 kts 346°
2026-04-10 10:34 -1.30655 11.03180 35951 ft 495 kts 346°
2026-04-10 10:34 -1.23962 11.01555 35954 ft 495 kts 346°
2026-04-10 10:35 -1.17263 10.99929 35962 ft 494 kts 346°
2026-04-10 10:35 -1.10572 10.98305 35968 ft 495 kts 346°
2026-04-10 10:36 -1.03921 10.96695 35968 ft 495 kts 346°
2026-04-10 10:36 -0.97231 10.95070 35961 ft 495 kts 346°
2026-04-10 10:37 -0.90539 10.93446 35962 ft 495 kts 346°
2026-04-10 10:37 -0.83840 10.91826 35965 ft 494 kts 346°
2026-04-10 10:38 -0.77155 10.90202 35964 ft 494 kts 346°
2026-04-10 10:38 -0.70509 10.88585 35963 ft 494 kts 346°
2026-04-10 10:39 -0.63820 10.86959 35963 ft 494 kts 346°
2026-04-10 10:39 -0.57139 10.85338 35962 ft 494 kts 346°
2026-04-10 10:40 -0.50459 10.83718 35956 ft 494 kts 346°
2026-04-10 10:40 -0.43778 10.82094 35953 ft 494 kts 346°
2026-04-10 10:41 -0.37135 10.80483 35952 ft 494 kts 346°
2026-04-10 10:41 -0.30445 10.78861 35952 ft 494 kts 346°
2026-04-10 10:42 -0.23755 10.77239 35953 ft 494 kts 346°
2026-04-10 10:42 -0.17108 10.75625 35954 ft 494 kts 346°
2026-04-10 10:43 -0.10421 10.74001 35955 ft 494 kts 346°
2026-04-10 10:43 -0.03743 10.72378 35954 ft 494 kts 346°
2026-04-10 10:44 0.02945 10.70753 35955 ft 494 kts 347°
2026-04-10 10:44 0.09617 10.69137 35955 ft 493 kts 347°
2026-04-10 10:45 0.16249 10.67522 35951 ft 493 kts 347°
2026-04-10 10:45 0.22928 10.65897 35943 ft 493 kts 347°
2026-04-10 10:46 0.29617 10.64271 35943 ft 493 kts 347°
2026-04-10 10:46 0.36270 10.62655 35943 ft 493 kts 347°
2026-04-10 10:47 0.42946 10.61032 35943 ft 493 kts 347°
2026-04-10 10:47 0.49594 10.59415 35942 ft 493 kts 347°
2026-04-10 10:48 0.56264 10.57793 35942 ft 493 kts 347°
2026-04-10 10:48 0.62947 10.56171 35935 ft 493 kts 347°
2026-04-10 10:49 0.69583 10.54562 35935 ft 494 kts 347°
2026-04-10 10:49 0.76256 10.52940 35931 ft 494 kts 347°
2026-04-10 10:50 0.82942 10.51313 35931 ft 494 kts 347°
2026-04-10 10:50 0.89628 10.49692 35927 ft 494 kts 347°
2026-04-10 10:51 0.96275 10.48075 35928 ft 494 kts 347°
2026-04-10 10:51 1.02972 10.46452 35936 ft 495 kts 347°
2026-04-10 10:52 1.09671 10.44829 35935 ft 495 kts 347°
2026-04-10 10:52 1.16371 10.43200 35934 ft 495 kts 347°
2026-04-10 10:53 1.23074 10.41574 35933 ft 495 kts 347°
2026-04-10 10:53 1.29781 10.39947 35936 ft 496 kts 347°
2026-04-10 10:54 1.36438 10.38330 35929 ft 496 kts 347°
2026-04-10 10:54 1.43152 10.36701 35924 ft 496 kts 347°
2026-04-10 10:55 1.49865 10.35071 35926 ft 496 kts 347°
2026-04-10 10:55 1.56586 10.33441 35928 ft 496 kts 347°
2026-04-10 10:56 1.63304 10.31814 35922 ft 497 kts 347°
2026-04-10 10:56 1.70027 10.30177 35925 ft 497 kts 347°
2026-04-10 10:57 1.76707 10.28559 35925 ft 497 kts 347°
2026-04-10 10:57 1.83437 10.26919 35926 ft 498 kts 347°
2026-04-10 10:58 1.90189 10.25276 35918 ft 498 kts 347°
2026-04-10 10:58 1.96882 10.23651 35918 ft 498 kts 347°
2026-04-10 10:59 2.03622 10.22016 35919 ft 498 kts 347°
2026-04-10 10:59 2.10361 10.20377 35919 ft 498 kts 347°
2026-04-10 11:00 2.17101 10.18743 35919 ft 498 kts 347°
2026-04-10 11:00 2.23811 10.17107 35928 ft 497 kts 347°
2026-04-10 11:01 2.30544 10.15468 35926 ft 497 kts 347°
2026-04-10 11:01 2.37271 10.13831 35929 ft 497 kts 347°
2026-04-10 11:02 2.43967 10.12211 35929 ft 497 kts 347°
2026-04-10 11:02 2.50702 10.10570 35935 ft 497 kts 347°
2026-04-10 11:03 2.57425 10.08932 35937 ft 496 kts 347°
2026-04-10 11:03 2.64133 10.07298 35934 ft 496 kts 347°
2026-04-10 11:04 2.70812 10.05674 35938 ft 496 kts 347°
2026-04-10 11:04 2.77520 10.04039 35944 ft 496 kts 347°
2026-04-10 11:05 2.87574 10.01596 35946 ft 495 kts 347°
2026-04-10 11:05 2.94269 9.99966 35947 ft 495 kts 347°
2026-04-10 11:06 2.99838 9.98615 35948 ft 495 kts 347°
2026-04-10 11:06 3.06530 9.96983 35953 ft 495 kts 347°
2026-04-10 11:07 3.13224 9.95349 35953 ft 494 kts 346°
2026-04-10 11:07 3.19907 9.93724 35949 ft 494 kts 347°
2026-04-10 11:08 3.26551 9.92111 35949 ft 494 kts 346°
2026-04-10 11:08 3.33233 9.90479 35950 ft 494 kts 346°
2026-04-10 11:09 3.39924 9.88851 35957 ft 494 kts 346°
2026-04-10 11:09 3.46613 9.87214 35955 ft 494 kts 346°
2026-04-10 11:10 3.53290 9.85592 35949 ft 494 kts 346°
2026-04-10 11:10 3.59938 9.83973 35945 ft 494 kts 346°
2026-04-10 11:11 3.66616 9.82338 35943 ft 494 kts 346°
2026-04-10 11:11 3.73296 9.80711 35942 ft 494 kts 346°
2026-04-10 11:12 3.79972 9.79087 35943 ft 494 kts 346°
2026-04-10 11:12 3.86660 9.77462 35943 ft 494 kts 346°
2026-04-10 11:13 3.93341 9.75831 35944 ft 494 kts 346°
2026-04-10 11:13 4.00002 9.74133 35941 ft 493 kts 342°
2026-04-10 11:14 4.06453 9.71856 35930 ft 494 kts 340°
2026-04-10 11:14 4.12934 9.69562 35939 ft 493 kts 340°
2026-04-10 11:15 4.19414 9.67270 35942 ft 493 kts 340°
2026-04-10 11:15 4.25891 9.64982 35946 ft 493 kts 340°
2026-04-10 11:16 4.32318 9.62708 35947 ft 493 kts 340°
2026-04-10 11:16 4.38790 9.60420 35946 ft 493 kts 340°
2026-04-10 11:17 4.45265 9.58127 35942 ft 493 kts 340°
2026-04-10 11:17 4.51838 9.56147 35945 ft 493 kts 349°
2026-04-10 11:18 4.58545 9.54731 35941 ft 492 kts 348°
2026-04-10 11:18 4.65241 9.53281 35944 ft 492 kts 348°
2026-04-10 11:19 4.71904 9.51831 35957 ft 492 kts 348°
2026-04-10 11:19 4.78602 9.50379 35954 ft 491 kts 348°
2026-04-10 11:20 4.85283 9.48927 35953 ft 491 kts 348°
2026-04-10 11:20 4.91961 9.47478 35954 ft 491 kts 348°
2026-04-10 11:21 4.98645 9.46028 35941 ft 491 kts 348°
2026-04-10 11:21 5.05287 9.44588 35928 ft 491 kts 348°
2026-04-10 11:22 5.11957 9.43125 35934 ft 490 kts 348°
2026-04-10 11:22 5.18613 9.41686 35935 ft 489 kts 348°
2026-04-10 11:23 5.25274 9.40242 35932 ft 489 kts 348°
2026-04-10 11:23 5.31927 9.38798 35935 ft 489 kts 348°
2026-04-10 11:24 5.38572 9.37353 35931 ft 488 kts 348°
2026-04-10 11:24 5.45214 9.35912 35933 ft 488 kts 348°
2026-04-10 11:25 5.51862 9.34467 35931 ft 489 kts 348°
2026-04-10 11:25 5.58464 9.33031 35934 ft 488 kts 348°
2026-04-10 11:26 5.65108 9.31582 35940 ft 488 kts 348°
2026-04-10 11:26 5.71773 9.30240 35943 ft 487 kts 353°
2026-04-10 11:27 5.78509 9.29476 35939 ft 487 kts 354°
2026-04-10 11:27 5.85246 9.28693 35943 ft 488 kts 354°
2026-04-10 11:28 5.92001 9.27909 35944 ft 487 kts 354°
2026-04-10 11:28 5.98752 9.27126 35944 ft 488 kts 354°
2026-04-10 11:29 6.05448 9.26347 35952 ft 487 kts 354°
2026-04-10 11:29 6.12188 9.25564 35953 ft 487 kts 354°
2026-04-10 11:30 6.18927 9.24794 35951 ft 486 kts 355°
2026-04-10 11:30 6.25685 9.24354 35952 ft 487 kts 358°
2026-04-10 11:31 6.32454 9.23969 35953 ft 487 kts 357°
2026-04-10 11:31 6.39175 9.23541 35955 ft 487 kts 357°
2026-04-10 11:32 6.45962 9.23095 35957 ft 487 kts 357°
2026-04-10 11:32 6.52719 9.22647 35963 ft 486 kts 357°
2026-04-10 11:33 6.59471 9.22204 35962 ft 486 kts 357°
2026-04-10 11:33 6.66186 9.21767 35965 ft 487 kts 357°
2026-04-10 11:34 6.72946 9.21318 35961 ft 487 kts 356°
2026-04-10 11:34 6.79702 9.20870 35959 ft 487 kts 356°
2026-04-10 11:35 6.86478 9.20427 35969 ft 486 kts 356°
2026-04-10 11:35 6.93239 9.19981 35970 ft 486 kts 356°
2026-04-10 11:36 6.99953 9.19531 35969 ft 486 kts 356°
2026-04-10 11:36 7.06725 9.19082 35969 ft 487 kts 356°
2026-04-10 11:37 7.13456 9.18328 35967 ft 487 kts 352°
2026-04-10 11:37 7.20181 9.17408 35969 ft 487 kts 353°
2026-04-10 11:38 7.26864 9.16500 35983 ft 488 kts 352°
2026-04-10 11:38 7.33613 9.15590 35993 ft 488 kts 353°
2026-04-10 11:39 7.40321 9.14679 35982 ft 488 kts 352°
2026-04-10 11:39 7.47061 9.13759 35963 ft 488 kts 352°
2026-04-10 11:40 7.53800 9.12843 35945 ft 488 kts 352°
2026-04-10 11:40 7.60501 9.11936 35936 ft 487 kts 352°
2026-04-10 11:41 7.67241 9.11023 35933 ft 487 kts 352°
2026-04-10 11:41 7.73933 9.10111 35929 ft 487 kts 352°
2026-04-10 11:42 7.80656 9.09194 35929 ft 487 kts 352°
2026-04-10 11:42 7.87379 9.08279 35926 ft 487 kts 352°
2026-04-10 11:43 7.94064 9.07369 35930 ft 488 kts 352°
2026-04-10 11:43 8.00808 9.06452 35933 ft 488 kts 352°
2026-04-10 11:44 8.07557 9.05534 35935 ft 488 kts 352°
2026-04-10 11:44 8.14263 9.04661 35934 ft 488 kts 353°
2026-04-10 11:45 8.21014 9.03869 35934 ft 488 kts 353°
2026-04-10 11:45 8.27791 9.03066 35935 ft 489 kts 353°
2026-04-10 11:46 8.34544 9.02249 35937 ft 489 kts 353°
2026-04-10 11:46 8.41262 9.01427 35936 ft 488 kts 353°
2026-04-10 11:47 8.48016 9.00532 35942 ft 488 kts 352°
2026-04-10 11:47 8.54750 8.99570 35943 ft 488 kts 352°
2026-04-10 11:48 8.61454 8.98628 35943 ft 488 kts 352°
2026-04-10 11:48 8.68201 8.97683 35943 ft 488 kts 352°
2026-04-10 11:49 8.74889 8.96755 35945 ft 488 kts 352°
2026-04-10 11:49 8.81625 8.95817 35950 ft 488 kts 352°
2026-04-10 11:50 8.88329 8.94883 35965 ft 487 kts 352°
2026-04-10 11:50 8.95059 8.93944 35982 ft 487 kts 352°
2026-04-10 11:51 9.01794 8.93005 35999 ft 487 kts 352°
2026-04-10 11:51 9.08489 8.92070 35995 ft 488 kts 352°
2026-04-10 11:52 9.14130 8.91285 36003 ft 488 kts 352°
2026-04-10 11:52 9.20839 8.90349 36000 ft 488 kts 352°
2026-04-10 11:53 9.27576 8.89403 36002 ft 488 kts 352°
2026-04-10 11:53 9.34276 8.88464 36008 ft 488 kts 352°
2026-04-10 11:54 9.41011 8.87526 36013 ft 488 kts 352°
2026-04-10 11:54 9.47762 8.86578 35998 ft 488 kts 352°
2026-04-10 11:55 9.54458 8.85642 35985 ft 488 kts 352°
2026-04-10 11:55 9.61193 8.84699 35983 ft 487 kts 352°
2026-04-10 11:56 9.67889 8.83805 35980 ft 488 kts 353°
2026-04-10 11:56 9.74655 8.83061 35979 ft 487 kts 353°
2026-04-10 11:57 9.81417 8.82319 35979 ft 487 kts 353°
2026-04-10 11:57 9.88129 8.81565 35979 ft 487 kts 353°
2026-04-10 11:58 9.94899 8.80795 35981 ft 487 kts 353°
2026-04-10 11:58 10.01600 8.80033 35985 ft 487 kts 353°
2026-04-10 11:59 10.08365 8.79266 35989 ft 487 kts 353°
2026-04-10 11:59 10.15074 8.78501 35987 ft 487 kts 353°
2026-04-10 12:00 10.21822 8.77732 35987 ft 487 kts 353°
2026-04-10 12:00 10.28528 8.76967 35989 ft 487 kts 353°
2026-04-10 12:01 10.35277 8.76200 35994 ft 487 kts 353°
2026-04-10 12:01 10.41984 8.75439 35992 ft 487 kts 353°
2026-04-10 12:02 10.48747 8.74647 36002 ft 488 kts 352°
2026-04-10 12:02 10.55464 8.73902 35997 ft 487 kts 353°
2026-04-10 12:03 10.62220 8.73136 35998 ft 488 kts 352°
2026-04-10 12:03 10.68972 8.72363 36001 ft 488 kts 352°
2026-04-10 12:04 10.75722 8.71585 35996 ft 488 kts 352°
2026-04-10 12:04 10.82457 8.70810 36005 ft 488 kts 353°
2026-04-10 12:05 10.89179 8.70033 35997 ft 488 kts 350°
2026-04-10 12:05 10.95887 8.68837 36004 ft 488 kts 349°
2026-04-10 12:06 11.02541 8.67651 36011 ft 488 kts 349°
2026-04-10 12:06 11.09233 8.66460 36007 ft 488 kts 349°
2026-04-10 12:07 11.19291 8.64672 36006 ft 489 kts 349°
2026-04-10 12:08 11.25998 8.63479 36008 ft 489 kts 349°
2026-04-10 12:08 11.32709 8.62282 36015 ft 490 kts 348°
2026-04-10 12:09 11.39427 8.61080 36009 ft 490 kts 348°
2026-04-10 12:09 11.46139 8.59884 36011 ft 490 kts 348°
2026-04-10 12:10 11.52855 8.58682 36009 ft 489 kts 348°
2026-04-10 12:10 11.59529 8.57491 36013 ft 489 kts 348°
2026-04-10 12:11 11.66249 8.56294 36010 ft 489 kts 348°
2026-04-10 12:11 11.68476 8.55897 36007 ft 489 kts 348°
2026-04-10 12:12 11.75377 8.54660 36007 ft 489 kts 348°
2026-04-10 12:12 11.82085 8.53461 36007 ft 489 kts 348°
2026-04-10 12:13 11.88764 8.52265 36009 ft 489 kts 348°
2026-04-10 12:13 11.95476 8.51060 36015 ft 489 kts 348°
2026-04-10 12:14 12.02151 8.49862 36016 ft 489 kts 348°
2026-04-10 12:14 12.08924 8.49077 36019 ft 490 kts 353°
2026-04-10 12:15 12.15718 8.48415 36017 ft 490 kts 353°
2026-04-10 12:15 12.22493 8.47748 36019 ft 490 kts 353°
2026-04-10 12:16 12.29302 8.47073 36019 ft 490 kts 353°
2026-04-10 12:16 12.36058 8.46407 36019 ft 490 kts 353°
2026-04-10 12:17 12.42861 8.45735 36019 ft 490 kts 353°
2026-04-10 12:17 12.49655 8.45058 36017 ft 490 kts 353°
2026-04-10 12:18 12.56407 8.44390 36018 ft 490 kts 353°
2026-04-10 12:18 12.63209 8.43727 36018 ft 490 kts 353°
2026-04-10 12:19 12.70018 8.43051 36020 ft 490 kts 353°
2026-04-10 12:19 12.76782 8.42380 36017 ft 490 kts 353°
2026-04-10 12:20 12.83573 8.41712 36016 ft 490 kts 352°
2026-04-10 12:20 12.90355 8.41038 36014 ft 490 kts 352°
2026-04-10 12:21 12.97152 8.40363 36009 ft 490 kts 352°
2026-04-10 12:21 13.03951 8.39684 35995 ft 491 kts 352°
2026-04-10 12:22 13.10717 8.39017 35996 ft 491 kts 353°
2026-04-10 12:22 13.17531 8.38387 35985 ft 491 kts 353°
2026-04-10 12:23 13.24340 8.37758 35987 ft 491 kts 353°
2026-04-10 12:23 13.31160 8.37125 35990 ft 492 kts 352°
2026-04-10 12:24 13.37985 8.36478 35991 ft 492 kts 352°
2026-04-10 12:24 13.44812 8.35831 35990 ft 492 kts 352°
2026-04-10 12:25 13.51598 8.35206 35986 ft 492 kts 352°
2026-04-10 12:25 13.58431 8.34571 35988 ft 492 kts 352°
2026-04-10 12:26 13.65267 8.33932 35990 ft 493 kts 352°
2026-04-10 12:26 13.72102 8.33292 35988 ft 493 kts 352°
2026-04-10 12:27 13.78884 8.32656 35996 ft 493 kts 352°
2026-04-10 12:27 13.85724 8.32011 35999 ft 493 kts 352°
2026-04-10 12:28 13.92565 8.31367 35996 ft 493 kts 352°
2026-04-10 12:28 13.99409 8.30720 36003 ft 494 kts 352°
2026-04-10 12:29 14.06250 8.30078 36000 ft 494 kts 352°
2026-04-10 12:29 14.13097 8.29437 36001 ft 493 kts 352°
2026-04-10 12:30 14.19935 8.28790 35998 ft 493 kts 352°
2026-04-10 12:30 14.26731 8.28150 35997 ft 493 kts 352°
2026-04-10 12:31 14.33560 8.27503 36003 ft 493 kts 352°
2026-04-10 12:31 14.40390 8.26857 35999 ft 493 kts 352°
2026-04-10 12:32 14.47223 8.26207 36000 ft 492 kts 352°
2026-04-10 12:32 14.54053 8.25563 36002 ft 492 kts 352°
2026-04-10 12:33 14.60837 8.24921 36002 ft 492 kts 352°
2026-04-10 12:33 14.67666 8.24269 36002 ft 491 kts 352°
2026-04-10 12:34 14.74476 8.23626 36007 ft 491 kts 352°
2026-04-10 12:34 14.81276 8.22986 36010 ft 490 kts 352°
2026-04-10 12:35 14.88069 8.22339 36010 ft 490 kts 352°
2026-04-10 12:35 14.94824 8.21694 36011 ft 489 kts 352°
2026-04-10 12:36 15.01596 8.21050 36012 ft 489 kts 352°
2026-04-10 12:36 15.08392 8.20406 36012 ft 488 kts 352°
2026-04-10 12:37 15.15123 8.19767 36012 ft 487 kts 352°
2026-04-10 12:37 15.21884 8.19131 36019 ft 487 kts 352°
2026-04-10 12:38 15.27496 8.18602 36018 ft 486 kts 351°
2026-04-10 12:38 15.35318 8.17856 36018 ft 486 kts 351°
2026-04-10 12:39 15.42047 8.17214 36018 ft 485 kts 351°
2026-04-10 12:39 15.47635 8.16683 36018 ft 485 kts 351°
2026-04-10 12:40 15.54354 8.16043 36026 ft 484 kts 351°
2026-04-10 12:40 15.61074 8.15410 36028 ft 484 kts 351°
2026-04-10 12:41 15.67779 8.14766 36027 ft 483 kts 351°
2026-04-10 12:41 15.74480 8.14130 36024 ft 483 kts 351°
2026-04-10 12:42 15.81180 8.13487 36026 ft 483 kts 351°
2026-04-10 12:42 15.87837 8.12850 36034 ft 483 kts 351°
2026-04-10 12:43 15.94549 8.12209 36235 ft 484 kts 351°
2026-04-10 12:43 15.97902 8.11890 36377 ft 484 kts 351°
2026-04-10 12:43 16.01255 8.11568 36531 ft 484 kts 351°
2026-04-10 12:43 16.04607 8.11247 36688 ft 484 kts 351°
2026-04-10 12:44 16.07962 8.10928 36866 ft 483 kts 351°
2026-04-10 12:44 16.11308 8.10610 37051 ft 481 kts 351°
2026-04-10 12:44 16.14645 8.10292 37224 ft 480 kts 351°
2026-04-10 12:44 16.17927 8.09979 37384 ft 480 kts 351°
2026-04-10 12:45 16.21257 8.09663 37537 ft 479 kts 351°
2026-04-10 12:45 16.24567 8.09345 37708 ft 478 kts 351°
2026-04-10 12:45 16.27882 8.09027 37878 ft 477 kts 351°
2026-04-10 12:45 16.31183 8.08710 38032 ft 476 kts 351°
2026-04-10 12:46 16.34483 8.08394 38047 ft 475 kts 351°
2026-04-10 12:46 16.41047 8.07763 38045 ft 472 kts 351°
2026-04-10 12:47 16.47600 8.07134 38045 ft 473 kts 351°
2026-04-10 12:47 16.54151 8.06502 38047 ft 473 kts 351°
2026-04-10 12:48 16.60670 8.05876 38045 ft 473 kts 351°
2026-04-10 12:48 16.67228 8.05242 38044 ft 472 kts 351°
2026-04-10 12:49 16.73780 8.04615 38045 ft 472 kts 350°
2026-04-10 12:49 16.80321 8.03984 38044 ft 472 kts 350°
2026-04-10 12:50 16.86868 8.03348 38045 ft 472 kts 350°
2026-04-10 12:50 16.93397 8.02687 38045 ft 470 kts 347°
2026-04-10 12:51 16.99709 8.01179 38044 ft 462 kts 337°
2026-04-10 12:51 17.05652 7.98696 38043 ft 459 kts 332°
2026-04-10 12:52 17.11484 7.96097 38046 ft 459 kts 332°
2026-04-10 12:52 17.17369 7.93487 38046 ft 459 kts 332°
2026-04-10 12:53 17.23249 7.90871 38050 ft 458 kts 332°
2026-04-10 12:53 17.29118 7.88256 38050 ft 458 kts 332°
2026-04-10 12:54 17.34970 7.85644 38050 ft 457 kts 332°
2026-04-10 12:54 17.40781 7.83049 38046 ft 457 kts 332°
2026-04-10 12:55 17.46637 7.80432 38046 ft 456 kts 331°
2026-04-10 12:55 17.52478 7.77814 38043 ft 456 kts 331°
2026-04-10 12:56 17.58325 7.75210 38052 ft 456 kts 331°
2026-04-10 12:56 17.64134 7.72608 38054 ft 455 kts 331°
2026-04-10 12:57 17.69964 7.69997 38056 ft 455 kts 331°
2026-04-10 12:57 17.75789 7.67386 38056 ft 455 kts 331°
2026-04-10 12:58 17.81608 7.64776 38053 ft 455 kts 331°
2026-04-10 12:58 17.87426 7.62166 38053 ft 454 kts 331°
2026-04-10 12:59 17.93239 7.59554 38054 ft 455 kts 331°
2026-04-10 12:59 17.99058 7.56936 38053 ft 454 kts 331°
2026-04-10 13:00 18.04873 7.54320 38053 ft 454 kts 331°
2026-04-10 13:00 18.10643 7.51726 38051 ft 454 kts 331°
2026-04-10 13:01 18.16450 7.49107 38056 ft 453 kts 331°
2026-04-10 13:01 18.22253 7.46496 38060 ft 454 kts 330°
2026-04-10 13:02 18.28056 7.43876 38061 ft 454 kts 331°
2026-04-10 13:02 18.33859 7.41258 38060 ft 453 kts 330°
2026-04-10 13:03 18.39658 7.38636 38062 ft 454 kts 330°
2026-04-10 13:03 18.45456 7.36008 38064 ft 454 kts 330°
2026-04-10 13:04 18.51258 7.33384 38073 ft 453 kts 330°
2026-04-10 13:04 18.57026 7.30777 38075 ft 453 kts 330°
2026-04-10 13:05 18.62831 7.28148 38075 ft 453 kts 330°
2026-04-10 13:05 18.68628 7.25515 38076 ft 453 kts 330°
2026-04-10 13:06 18.74418 7.22888 38091 ft 453 kts 330°
2026-04-10 13:06 18.80205 7.20257 38086 ft 452 kts 330°
2026-04-10 13:07 18.85955 7.17652 38081 ft 452 kts 330°
2026-04-10 13:07 18.91745 7.15021 38080 ft 452 kts 330°
2026-04-10 13:08 18.97523 7.12390 38085 ft 451 kts 330°
2026-04-10 13:08 19.03289 7.09763 38091 ft 451 kts 330°
2026-04-10 13:09 19.11953 7.05809 38088 ft 451 kts 329°
2026-04-10 13:09 19.17690 7.03190 38098 ft 452 kts 329°
2026-04-10 13:10 19.23460 7.00554 38102 ft 451 kts 329°
2026-04-10 13:10 19.29232 6.97917 38107 ft 451 kts 329°
2026-04-10 13:11 19.35003 6.95276 38109 ft 451 kts 329°
2026-04-10 13:11 19.40738 6.92649 38110 ft 451 kts 329°
2026-04-10 13:12 19.46500 6.90012 38112 ft 451 kts 329°
2026-04-10 13:12 19.52272 6.87366 38121 ft 451 kts 329°
2026-04-10 13:13 19.57994 6.84741 38122 ft 450 kts 329°
2026-04-10 13:13 19.63755 6.82100 38127 ft 450 kts 329°
2026-04-10 13:14 19.69504 6.79451 38130 ft 450 kts 329°
2026-04-10 13:14 19.75219 6.76817 38128 ft 450 kts 329°
2026-04-10 13:15 19.80981 6.74170 38146 ft 450 kts 329°
2026-04-10 13:15 19.86692 6.71541 38144 ft 449 kts 329°
2026-04-10 13:16 19.92439 6.68888 38149 ft 449 kts 329°
2026-04-10 13:16 19.98174 6.66241 38144 ft 449 kts 329°
2026-04-10 13:17 20.03915 6.63591 38150 ft 449 kts 328°
2026-04-10 13:17 20.09611 6.60963 38165 ft 448 kts 328°
2026-04-10 13:18 20.15356 6.58380 38165 ft 449 kts 330°
2026-04-10 13:18 20.21164 6.55980 38160 ft 449 kts 330°
2026-04-10 13:19 20.27005 6.53550 38165 ft 449 kts 330°
2026-04-10 13:19 20.32823 6.51103 38166 ft 449 kts 330°
2026-04-10 13:20 20.38598 6.48661 38171 ft 448 kts 330°
2026-04-10 13:20 20.44421 6.46202 38174 ft 449 kts 330°
2026-04-10 13:21 20.50201 6.43765 38158 ft 449 kts 330°
2026-04-10 13:21 20.56012 6.41308 38156 ft 449 kts 330°
2026-04-10 13:22 20.61825 6.38852 38158 ft 448 kts 330°
2026-04-10 13:22 20.67626 6.36396 38152 ft 448 kts 330°
2026-04-10 13:23 20.73393 6.33952 38157 ft 448 kts 329°
2026-04-10 13:23 20.79191 6.31489 38168 ft 448 kts 330°
2026-04-10 13:24 20.84980 6.29031 38164 ft 447 kts 329°
2026-04-10 13:24 20.89807 6.26983 38158 ft 447 kts 329°
2026-04-10 13:25 20.95599 6.24516 38177 ft 447 kts 329°
2026-04-10 13:25 21.01376 6.22058 38175 ft 447 kts 329°
2026-04-10 13:26 21.07112 6.19612 38185 ft 446 kts 329°
2026-04-10 13:26 21.12881 6.17159 38186 ft 446 kts 329°
2026-04-10 13:27 21.18650 6.14706 38187 ft 446 kts 329°
2026-04-10 13:27 21.24410 6.12238 38198 ft 446 kts 329°
2026-04-10 13:28 21.30170 6.09781 38200 ft 445 kts 329°
2026-04-10 13:28 21.35932 6.07319 38199 ft 445 kts 329°
2026-04-10 13:29 21.41672 6.04857 38204 ft 444 kts 328°
2026-04-10 13:29 21.47409 6.02400 38202 ft 444 kts 328°
2026-04-10 13:30 21.53144 5.99935 38188 ft 444 kts 328°
2026-04-10 13:30 21.58882 5.97476 38200 ft 444 kts 328°
2026-04-10 13:31 21.64619 5.95014 38198 ft 444 kts 328°
2026-04-10 13:31 21.70349 5.92549 38200 ft 443 kts 328°
2026-04-10 13:32 21.76041 5.90098 38211 ft 443 kts 328°
2026-04-10 13:32 21.81771 5.87635 38213 ft 444 kts 328°
2026-04-10 13:33 21.87512 5.85169 38210 ft 444 kts 328°
2026-04-10 13:33 21.93256 5.82689 38212 ft 444 kts 328°
2026-04-10 13:34 21.98992 5.80210 38226 ft 443 kts 328°
2026-04-10 13:34 22.04719 5.77731 38226 ft 443 kts 328°
2026-04-10 13:35 22.10423 5.75264 38226 ft 443 kts 328°
2026-04-10 13:35 22.16151 5.72780 38232 ft 444 kts 328°
2026-04-10 13:36 22.21880 5.70299 38236 ft 443 kts 328°
2026-04-10 13:36 22.27606 5.67819 38221 ft 444 kts 328°
2026-04-10 13:37 22.33341 5.65333 38221 ft 444 kts 328°
2026-04-10 13:37 22.39073 5.62842 38233 ft 444 kts 328°
2026-04-10 13:38 22.44767 5.60362 38234 ft 444 kts 327°
2026-04-10 13:38 22.50501 5.57866 38241 ft 444 kts 327°
2026-04-10 13:39 22.56238 5.55366 38231 ft 445 kts 327°
2026-04-10 13:39 22.61983 5.52863 38225 ft 445 kts 327°
2026-04-10 13:40 22.67737 5.50352 38244 ft 445 kts 327°
2026-04-10 13:40 22.73486 5.47845 38246 ft 445 kts 327°
2026-04-10 13:41 22.79234 5.45330 38244 ft 445 kts 327°
2026-04-10 13:41 22.85190 5.43214 38236 ft 453 kts 333°
2026-04-10 13:42 22.91204 5.41275 38240 ft 454 kts 332°
2026-04-10 13:42 22.97255 5.39311 38246 ft 454 kts 332°
2026-04-10 13:43 23.03302 5.37345 38247 ft 454 kts 332°
2026-04-10 13:43 23.09356 5.35378 38245 ft 454 kts 332°
2026-04-10 13:44 23.15409 5.33404 38243 ft 454 kts 332°
2026-04-10 13:44 23.21463 5.31434 38230 ft 454 kts 332°
2026-04-10 13:45 23.27517 5.29461 38236 ft 454 kts 332°
2026-04-10 13:45 23.33565 5.27489 38236 ft 453 kts 332°
2026-04-10 13:46 23.39573 5.25535 38221 ft 454 kts 332°
2026-04-10 13:46 23.45621 5.23555 38231 ft 454 kts 332°
2026-04-10 13:47 23.51667 5.21572 38218 ft 454 kts 332°
2026-04-10 13:47 23.57721 5.19589 38225 ft 454 kts 332°
2026-04-10 13:48 23.63770 5.17605 38217 ft 454 kts 332°
2026-04-10 13:48 23.69823 5.15619 38211 ft 454 kts 332°
2026-04-10 13:49 23.75877 5.13634 38213 ft 454 kts 332°
2026-04-10 13:49 23.81923 5.11643 38203 ft 453 kts 331°
2026-04-10 13:50 23.87943 5.09658 38204 ft 454 kts 332°
2026-04-10 13:50 23.94001 5.07664 38199 ft 453 kts 332°
2026-04-10 13:51 24.00041 5.05675 38190 ft 453 kts 332°
2026-04-10 13:51 24.06079 5.03681 38196 ft 453 kts 331°
2026-04-10 13:52 24.12082 5.01697 38190 ft 454 kts 331°
2026-04-10 13:52 24.18122 4.99701 38191 ft 453 kts 331°
2026-04-10 13:53 24.24165 4.97699 38179 ft 453 kts 331°
2026-04-10 13:53 24.30196 4.95705 38177 ft 452 kts 330°
2026-04-10 13:54 24.36213 4.93701 38166 ft 452 kts 331°
2026-04-10 13:54 24.42245 4.91698 38165 ft 452 kts 331°
2026-04-10 13:55 24.48267 4.89698 38152 ft 452 kts 331°
2026-04-10 13:55 24.54283 4.87698 38151 ft 452 kts 331°
2026-04-10 13:56 24.60266 4.85703 38143 ft 451 kts 331°
2026-04-10 13:56 24.66272 4.83700 38131 ft 451 kts 331°
2026-04-10 13:57 24.72283 4.81697 38127 ft 451 kts 331°
2026-04-10 13:57 24.78303 4.79681 38122 ft 452 kts 330°
2026-04-10 13:58 24.84296 4.77681 38122 ft 452 kts 331°
2026-04-10 13:58 24.90320 4.75668 38118 ft 452 kts 330°
2026-04-10 13:59 24.96351 4.73644 38119 ft 453 kts 330°
2026-04-10 13:59 25.02384 4.71626 38112 ft 453 kts 330°
2026-04-10 14:00 25.08412 4.69597 38112 ft 453 kts 330°
2026-04-10 14:00 25.14449 4.67566 38111 ft 453 kts 330°
2026-04-10 14:01 25.20489 4.65533 38105 ft 453 kts 330°
2026-04-10 14:01 25.26479 4.63518 38103 ft 452 kts 330°
2026-04-10 14:02 25.32497 4.61485 38091 ft 452 kts 330°
2026-04-10 14:02 25.38513 4.59455 38092 ft 452 kts 330°
2026-04-10 14:03 25.44533 4.57420 38083 ft 452 kts 330°
2026-04-10 14:03 25.50551 4.55387 38078 ft 451 kts 330°
2026-04-10 14:04 25.56563 4.53351 38082 ft 452 kts 330°
2026-04-10 14:05 25.65599 4.50284 38069 ft 452 kts 330°
2026-04-10 14:05 25.71582 4.48246 38060 ft 453 kts 330°
2026-04-10 14:06 25.77611 4.46206 38063 ft 453 kts 330°
2026-04-10 14:06 25.83634 4.44162 38052 ft 452 kts 330°
2026-04-10 14:07 25.89649 4.42111 38055 ft 452 kts 330°
2026-04-10 14:07 25.95664 4.40050 38057 ft 452 kts 329°
2026-04-10 14:08 26.01687 4.37989 38057 ft 452 kts 329°
2026-04-10 14:08 26.07709 4.35940 38047 ft 452 kts 330°
2026-04-10 14:09 26.13696 4.33893 38038 ft 452 kts 329°
2026-04-10 14:09 26.19710 4.31837 38034 ft 452 kts 329°
2026-04-10 14:10 26.24741 4.30111 38037 ft 452 kts 329°
2026-04-10 14:10 26.30713 4.28063 38031 ft 452 kts 330°
2026-04-10 14:11 26.36736 4.26002 38025 ft 452 kts 330°
2026-04-10 14:11 26.42749 4.23931 38026 ft 452 kts 329°
2026-04-10 14:12 26.48762 4.21860 38018 ft 452 kts 329°
2026-04-10 14:12 26.54769 4.19787 38018 ft 452 kts 330°
2026-04-10 14:13 26.60745 4.17721 38012 ft 452 kts 330°
2026-04-10 14:13 26.66775 4.15642 38010 ft 452 kts 330°
2026-04-10 14:14 26.72794 4.13560 38001 ft 452 kts 330°
2026-04-10 14:14 26.78801 4.11473 37999 ft 452 kts 330°
2026-04-10 14:15 26.84812 4.09396 37998 ft 452 kts 330°
2026-04-10 14:15 26.90824 4.07316 37990 ft 453 kts 330°
2026-04-10 14:16 26.96811 4.05237 37993 ft 453 kts 330°
2026-04-10 14:16 27.02840 4.03142 37986 ft 454 kts 330°
2026-04-10 14:17 27.08877 4.01037 37982 ft 454 kts 330°
2026-04-10 14:17 27.14923 3.98932 37979 ft 454 kts 330°
2026-04-10 14:18 27.20973 3.96824 37964 ft 456 kts 330°
2026-04-10 14:18 27.27040 3.94701 37960 ft 457 kts 330°
2026-04-10 14:19 27.33077 3.92594 37986 ft 457 kts 330°
2026-04-10 14:19 27.39163 3.90464 37992 ft 458 kts 330°
2026-04-10 14:20 27.45271 3.88334 37996 ft 458 kts 330°
2026-04-10 14:20 27.51359 3.86191 37994 ft 458 kts 330°
2026-04-10 14:21 27.57448 3.84046 37990 ft 458 kts 330°
2026-04-10 14:21 27.63506 3.81911 37959 ft 458 kts 330°
2026-04-10 14:22 27.69606 3.79765 37963 ft 459 kts 330°
2026-04-10 14:22 27.75706 3.77622 37963 ft 458 kts 330°
2026-04-10 14:23 27.81798 3.75468 37963 ft 458 kts 330°
2026-04-10 14:23 27.87849 3.73331 37979 ft 458 kts 330°
2026-04-10 14:24 27.93932 3.71181 37963 ft 458 kts 330°
2026-04-10 14:24 28.00003 3.69025 37959 ft 457 kts 330°
2026-04-10 14:25 28.06078 3.66870 37977 ft 457 kts 330°
2026-04-10 14:25 28.12153 3.64717 37963 ft 458 kts 330°
2026-04-10 14:26 28.18230 3.62561 37967 ft 458 kts 330°
2026-04-10 14:26 28.24325 3.60397 37971 ft 458 kts 330°
2026-04-10 14:27 28.30361 3.58242 37979 ft 458 kts 330°
2026-04-10 14:27 28.36446 3.56077 37981 ft 458 kts 330°
2026-04-10 14:28 28.42529 3.53903 37982 ft 458 kts 330°
2026-04-10 14:28 28.48619 3.51724 37990 ft 458 kts 330°
2026-04-10 14:29 28.54707 3.49668 37987 ft 462 kts 333°
2026-04-10 14:29 28.60927 3.47798 37989 ft 462 kts 333°
2026-04-10 14:30 28.67138 3.45902 37989 ft 462 kts 333°
2026-04-10 14:30 28.73346 3.43982 37998 ft 462 kts 333°
2026-04-10 14:31 28.79547 3.42058 37995 ft 461 kts 334°
2026-04-10 14:31 28.85743 3.40130 37998 ft 461 kts 333°
2026-04-10 14:32 28.91946 3.38193 38001 ft 462 kts 333°
2026-04-10 14:32 28.98146 3.36254 38009 ft 462 kts 334°
2026-04-10 14:33 29.04317 3.34331 38009 ft 462 kts 334°
2026-04-10 14:33 29.10528 3.32382 38012 ft 462 kts 334°
2026-04-10 14:34 29.16740 3.30436 38012 ft 462 kts 334°
2026-04-10 14:34 29.22937 3.28483 38019 ft 462 kts 334°
2026-04-10 14:35 29.29148 3.26532 38022 ft 462 kts 334°
2026-04-10 14:35 29.35352 3.24577 38020 ft 462 kts 334°
2026-04-10 14:36 29.41556 3.22623 38019 ft 462 kts 334°
2026-04-10 14:36 29.47739 3.20673 38020 ft 462 kts 334°
2026-04-10 14:37 29.53917 3.18722 38018 ft 462 kts 334°
2026-04-10 14:37 29.60130 3.16753 38020 ft 462 kts 334°
2026-04-10 14:38 29.66304 3.14800 38031 ft 462 kts 334°
2026-04-10 14:38 29.72523 3.12829 38026 ft 462 kts 334°
2026-04-10 14:39 29.78728 3.10857 38027 ft 462 kts 334°
2026-04-10 14:39 29.84907 3.08896 38025 ft 462 kts 334°
2026-04-10 14:40 29.91073 3.06931 38031 ft 462 kts 334°
2026-04-10 14:40 29.97278 3.04949 38022 ft 463 kts 334°
2026-04-10 14:41 30.03496 3.02971 38028 ft 463 kts 335°
2026-04-10 14:41 30.09725 3.00980 38027 ft 463 kts 335°
2026-04-10 14:42 30.15919 2.99002 38020 ft 464 kts 335°
2026-04-10 14:42 30.22150 2.97007 38021 ft 464 kts 335°
2026-04-10 14:43 30.28383 2.95008 38021 ft 464 kts 335°
2026-04-10 14:43 30.34570 2.93018 38022 ft 464 kts 335°
2026-04-10 14:44 30.40812 2.91009 38020 ft 464 kts 335°
2026-04-10 14:44 30.46996 2.89021 38021 ft 464 kts 335°
2026-04-10 14:45 30.53068 2.86694 38016 ft 451 kts 325°
2026-04-10 14:45 30.58198 2.82808 38017 ft 432 kts 310°
2026-04-10 14:46 30.62233 2.77796 38016 ft 424 kts 303°
2026-04-10 14:46 30.66139 2.72655 38013 ft 425 kts 303°
2026-04-10 14:47 30.70062 2.67519 38017 ft 425 kts 303°
2026-04-10 14:47 30.73981 2.62364 38020 ft 426 kts 303°
2026-04-10 14:48 30.77893 2.57199 38026 ft 425 kts 303°
2026-04-10 14:48 30.81804 2.52036 38031 ft 425 kts 303°
2026-04-10 14:49 30.85685 2.46898 38024 ft 426 kts 303°
2026-04-10 14:49 30.89594 2.41728 38031 ft 426 kts 303°
2026-04-10 14:50 30.93506 2.36550 38025 ft 426 kts 303°
2026-04-10 14:50 30.97413 2.31367 38035 ft 426 kts 303°
2026-04-10 14:51 31.01315 2.26177 38028 ft 426 kts 303°
2026-04-10 14:51 31.05228 2.20984 38031 ft 426 kts 303°
2026-04-10 14:52 31.09130 2.15779 38040 ft 426 kts 303°
2026-04-10 14:52 31.13027 2.10573 38037 ft 426 kts 303°
2026-04-10 14:53 31.16930 2.05362 38040 ft 426 kts 303°
2026-04-10 14:53 31.20828 2.00143 38041 ft 426 kts 303°
2026-04-10 14:54 31.24727 1.94916 38030 ft 427 kts 303°
2026-04-10 14:54 31.28631 1.89682 38042 ft 427 kts 303°
2026-04-10 14:55 31.32526 1.84433 38044 ft 427 kts 303°
2026-04-10 14:55 31.36434 1.79195 38044 ft 428 kts 303°
2026-04-10 14:56 31.40313 1.73973 38046 ft 428 kts 303°
2026-04-10 14:56 31.44214 1.68716 38054 ft 428 kts 303°
2026-04-10 14:57 31.48113 1.63446 38057 ft 428 kts 303°
2026-04-10 14:57 31.52014 1.58170 38057 ft 428 kts 303°
2026-04-10 14:58 31.55914 1.52888 38058 ft 429 kts 303°
2026-04-10 14:58 31.59370 1.48614 38057 ft 436 kts 310°
2026-04-10 14:59 31.63961 1.43940 38065 ft 437 kts 311°
2026-04-10 14:59 31.68542 1.39251 38061 ft 437 kts 311°
2026-04-10 15:00 31.73120 1.34543 38065 ft 438 kts 310°
2026-04-10 15:00 31.77701 1.29831 38065 ft 438 kts 310°
2026-04-10 15:01 31.82281 1.25111 38074 ft 438 kts 310°
2026-04-10 15:01 31.86856 1.20384 38071 ft 438 kts 310°
2026-04-10 15:02 31.90999 1.15245 38069 ft 430 kts 303°
2026-04-10 15:02 31.94894 1.09945 38070 ft 431 kts 303°
2026-04-10 15:03 31.98830 1.04620 38066 ft 431 kts 303°
2026-04-10 15:03 32.02775 0.99280 38033 ft 433 kts 304°
2026-04-10 15:04 32.06735 0.93908 38037 ft 435 kts 304°
2026-04-10 15:04 32.10707 0.88508 38042 ft 436 kts 304°
2026-04-10 15:05 32.16671 0.80365 38048 ft 438 kts 304°
2026-04-10 15:05 32.20662 0.74915 38055 ft 439 kts 304°
2026-04-10 15:06 32.24651 0.69449 38063 ft 440 kts 304°
2026-04-10 15:06 32.28651 0.63963 38054 ft 441 kts 305°
2026-04-10 15:07 32.32662 0.58459 38057 ft 442 kts 305°
2026-04-10 15:07 32.36683 0.52942 38065 ft 443 kts 305°
2026-04-10 15:08 32.40708 0.47401 38066 ft 444 kts 304°
2026-04-10 15:08 32.44734 0.41858 38067 ft 444 kts 304°
2026-04-10 15:09 32.48758 0.36300 38068 ft 444 kts 304°
2026-04-10 15:09 32.52777 0.30739 38071 ft 445 kts 304°
2026-04-10 15:10 32.56795 0.25172 38077 ft 444 kts 304°
2026-04-10 15:10 32.60794 0.19631 38083 ft 445 kts 304°
2026-04-10 15:11 32.64820 0.14045 38078 ft 445 kts 304°
2026-04-10 15:11 32.68836 0.08454 38079 ft 445 kts 304°
2026-04-10 15:12 32.72853 0.02851 38080 ft 445 kts 304°
2026-04-10 15:12 32.76847 -0.02718 38086 ft 445 kts 304°
2026-04-10 15:13 32.80870 -0.08326 38058 ft 446 kts 302°
2026-04-10 15:13 32.84928 -0.14009 38074 ft 454 kts 301°
2026-04-10 15:14 32.89037 -0.19765 38075 ft 455 kts 301°
2026-04-10 15:14 32.93117 -0.25486 38075 ft 455 kts 301°
2026-04-10 15:15 32.97212 -0.31240 38074 ft 455 kts 301°
2026-04-10 15:15 33.01302 -0.37001 38076 ft 455 kts 301°
2026-04-10 15:16 33.05390 -0.42768 38080 ft 455 kts 301°
2026-04-10 15:16 33.09457 -0.48512 38072 ft 455 kts 301°
2026-04-10 15:17 33.13544 -0.54293 38057 ft 455 kts 301°
2026-04-10 15:17 33.17630 -0.60080 38036 ft 456 kts 301°
2026-04-10 15:18 33.21716 -0.65886 38020 ft 456 kts 301°
2026-04-10 15:18 33.25777 -0.71658 38018 ft 456 kts 301°
2026-04-10 15:19 33.29858 -0.77476 38020 ft 456 kts 301°
2026-04-10 15:19 33.33932 -0.83291 38019 ft 456 kts 301°
2026-04-10 15:20 33.38010 -0.89120 38006 ft 457 kts 301°
2026-04-10 15:20 33.42092 -0.94960 38009 ft 457 kts 301°
2026-04-10 15:21 33.46176 -1.00804 38007 ft 457 kts 301°
2026-04-10 15:21 33.50247 -1.06651 38001 ft 457 kts 301°
2026-04-10 15:22 33.54325 -1.12516 38004 ft 458 kts 301°
2026-04-10 15:22 33.58402 -1.18387 37998 ft 458 kts 301°
2026-04-10 15:23 33.62457 -1.24233 37995 ft 459 kts 301°
2026-04-10 15:23 33.66539 -1.30136 37997 ft 459 kts 301°
2026-04-10 15:24 33.70630 -1.36059 37991 ft 460 kts 301°
2026-04-10 15:24 33.74707 -1.41984 37990 ft 460 kts 301°
2026-04-10 15:25 33.78779 -1.47881 37996 ft 461 kts 301°
2026-04-10 15:25 33.82874 -1.53828 37981 ft 461 kts 301°
2026-04-10 15:26 33.86968 -1.59788 37959 ft 462 kts 301°
2026-04-10 15:26 33.90866 -1.65876 37955 ft 457 kts 297°
2026-04-10 15:27 33.94610 -1.72092 37927 ft 458 kts 297°
2026-04-10 15:27 33.98346 -1.78255 37920 ft 458 kts 297°
2026-04-10 15:28 34.02088 -1.84469 37917 ft 458 kts 297°
2026-04-10 15:28 34.05823 -1.90686 37910 ft 458 kts 297°
2026-04-10 15:29 34.09089 -1.97164 37901 ft 446 kts 288°
2026-04-10 15:29 34.11810 -2.03889 37903 ft 446 kts 287°
2026-04-10 15:30 34.14544 -2.10552 37899 ft 446 kts 288°
2026-04-10 15:30 34.17327 -2.17277 37898 ft 447 kts 288°
2026-04-10 15:31 34.20111 -2.24000 37893 ft 447 kts 288°
2026-04-10 15:31 34.22889 -2.30736 37883 ft 448 kts 288°
2026-04-10 15:32 34.25667 -2.37495 37886 ft 449 kts 288°
2026-04-10 15:32 34.28431 -2.44218 37881 ft 450 kts 288°
2026-04-10 15:33 34.31222 -2.51028 37877 ft 451 kts 288°
2026-04-10 15:33 34.34013 -2.57844 37882 ft 452 kts 288°
2026-04-10 15:34 34.36801 -2.64675 37863 ft 454 kts 288°
2026-04-10 15:34 34.39595 -2.71533 37864 ft 455 kts 288°
2026-04-10 15:35 34.42393 -2.78409 37870 ft 456 kts 288°
2026-04-10 15:35 34.45179 -2.85281 37870 ft 457 kts 288°
2026-04-10 15:36 34.47988 -2.92216 37869 ft 459 kts 288°
2026-04-10 15:36 34.50805 -2.99180 37863 ft 461 kts 288°
2026-04-10 15:37 34.53625 -3.06172 37865 ft 462 kts 288°
2026-04-10 15:37 34.56449 -3.13190 37876 ft 463 kts 288°
2026-04-10 15:38 34.59276 -3.20239 37885 ft 464 kts 289°
2026-04-10 15:38 34.62090 -3.27245 37872 ft 465 kts 289°
2026-04-10 15:39 34.64921 -3.34317 37871 ft 465 kts 288°
2026-04-10 15:39 34.67746 -3.41400 37872 ft 466 kts 288°
2026-04-10 15:40 34.70569 -3.48491 37884 ft 466 kts 288°
2026-04-10 15:40 34.73395 -3.55597 37882 ft 467 kts 288°
2026-04-10 15:41 34.76211 -3.62710 37893 ft 467 kts 288°
2026-04-10 15:41 34.79033 -3.69842 37896 ft 468 kts 288°
2026-04-10 15:42 34.81856 -3.76982 37900 ft 469 kts 288°
2026-04-10 15:42 34.84679 -3.84150 37903 ft 469 kts 288°
2026-04-10 15:43 34.87479 -3.91274 37909 ft 470 kts 288°
2026-04-10 15:43 34.90294 -3.98447 37916 ft 469 kts 288°
2026-04-10 15:44 34.93101 -4.05626 37912 ft 471 kts 289°
2026-04-10 15:44 34.95458 -4.11670 37916 ft 477 kts 289°
2026-04-10 15:45 34.98310 -4.18982 37915 ft 478 kts 289°
2026-04-10 15:45 35.01158 -4.26296 37909 ft 478 kts 289°
2026-04-10 15:46 35.04002 -4.33637 37907 ft 479 kts 289°
2026-04-10 15:46 35.06847 -4.40979 37904 ft 478 kts 289°
2026-04-10 15:47 35.09691 -4.48332 37902 ft 479 kts 289°
2026-04-10 15:47 35.12532 -4.55698 37904 ft 479 kts 289°
2026-04-10 15:48 35.15367 -4.63071 37905 ft 479 kts 289°
2026-04-10 15:48 35.18190 -4.70447 37899 ft 479 kts 289°
2026-04-10 15:49 35.21008 -4.77800 37897 ft 480 kts 289°
2026-04-10 15:49 35.23842 -4.85213 37898 ft 482 kts 289°
2026-04-10 15:50 35.26680 -4.92648 37903 ft 482 kts 289°
2026-04-10 15:50 35.29512 -5.00101 37900 ft 483 kts 289°
2026-04-10 15:51 35.32361 -5.07592 37908 ft 484 kts 290°
2026-04-10 15:51 35.35180 -5.15054 37908 ft 485 kts 290°
2026-04-10 15:52 35.38017 -5.22582 37907 ft 487 kts 290°
2026-04-10 15:52 35.40842 -5.30087 37911 ft 488 kts 290°
2026-04-10 15:53 35.43693 -5.37657 37904 ft 489 kts 290°
2026-04-10 15:53 35.46534 -5.45245 37909 ft 490 kts 290°
2026-04-10 15:54 35.49387 -5.52869 37909 ft 492 kts 290°
2026-04-10 15:54 35.52248 -5.60532 37925 ft 494 kts 290°
2026-04-10 15:55 35.55107 -5.68218 37933 ft 495 kts 290°
2026-04-10 15:55 35.57970 -5.75933 37952 ft 496 kts 290°
2026-04-10 15:56 35.60817 -5.83621 37958 ft 497 kts 290°
2026-04-10 15:56 35.63688 -5.91384 37956 ft 499 kts 290°
2026-04-10 15:57 35.66556 -5.99171 37975 ft 500 kts 290°
2026-04-10 15:57 35.69422 -6.06967 37974 ft 500 kts 291°
2026-04-10 15:58 35.72270 -6.14725 37966 ft 500 kts 291°
2026-04-10 15:58 35.75131 -6.22547 37962 ft 500 kts 290°
2026-04-10 15:59 35.77986 -6.30374 37974 ft 500 kts 290°
2026-04-10 15:59 35.80843 -6.38201 37966 ft 500 kts 291°
2026-04-10 16:00 35.83457 -6.46051 37962 ft 496 kts 284°
2026-04-10 16:00 35.85250 -6.54234 37969 ft 493 kts 280°
2026-04-10 16:01 35.86978 -6.62436 37975 ft 493 kts 281°
2026-04-10 16:01 35.88705 -6.70621 37967 ft 492 kts 281°
2026-04-10 16:02 35.90413 -6.78746 37955 ft 491 kts 281°
2026-04-10 16:02 35.92106 -6.86888 37957 ft 490 kts 281°
2026-04-10 16:03 35.93802 -6.95060 37952 ft 489 kts 281°
2026-04-10 16:03 35.95462 -7.03147 37945 ft 489 kts 281°
2026-04-10 16:04 35.97136 -7.11278 37958 ft 488 kts 281°
2026-04-10 16:04 35.98805 -7.19397 37947 ft 487 kts 281°
2026-04-10 16:05 36.00464 -7.27506 37947 ft 487 kts 281°
2026-04-10 16:05 36.02642 -7.35451 37958 ft 495 kts 296°
2026-04-10 16:06 36.04521 -7.39032 37971 ft 500 kts 307°
2026-04-10 16:06 36.06869 -7.42135 37958 ft 501 kts 318°
2026-04-10 16:06 36.12433 -7.47313 37959 ft 500 kts 323°
2026-04-10 16:07 36.18033 -7.52449 37969 ft 500 kts 323°
2026-04-10 16:07 36.23572 -7.57571 37965 ft 499 kts 322°
2026-04-10 16:08 36.29146 -7.62731 37969 ft 500 kts 323°
2026-04-10 16:08 36.34729 -7.67894 37955 ft 500 kts 323°
2026-04-10 16:09 36.40306 -7.73068 37970 ft 500 kts 323°
2026-04-10 16:09 36.45840 -7.78215 37968 ft 500 kts 323°
2026-04-10 16:10 36.51407 -7.83401 37973 ft 500 kts 323°
2026-04-10 16:10 36.56968 -7.88588 37968 ft 492 kts 323°
2026-04-10 16:11 36.59681 -7.91121 37968 ft 481 kts 323°
2026-04-10 16:11 36.62351 -7.93618 37960 ft 478 kts 323°
2026-04-10 16:11 36.67685 -7.98615 37969 ft 486 kts 323°
2026-04-10 16:12 36.73075 -8.03673 37955 ft 481 kts 323°
2026-04-10 16:13 36.81065 -8.11180 37967 ft 480 kts 324°
2026-04-10 16:13 36.86372 -8.16185 37989 ft 482 kts 324°
2026-04-10 16:14 36.91740 -8.21261 37997 ft 484 kts 325°
2026-04-10 16:14 36.97161 -8.26320 38006 ft 485 kts 326°
2026-04-10 16:15 37.02573 -8.31368 38009 ft 486 kts 326°
2026-04-10 16:15 37.07974 -8.36485 38006 ft 486 kts 325°
2026-04-10 16:16 37.13321 -8.41590 38007 ft 486 kts 325°
2026-04-10 16:16 37.18704 -8.46740 38004 ft 486 kts 325°
2026-04-10 16:17 37.24080 -8.51890 38003 ft 485 kts 325°
2026-04-10 16:17 37.29434 -8.57024 37693 ft 481 kts 326°
2026-04-10 16:17 37.32061 -8.59547 37336 ft 478 kts 326°
2026-04-10 16:18 37.34691 -8.62075 36943 ft 474 kts 326°
2026-04-10 16:18 37.37306 -8.64589 36214 ft 471 kts 326°
2026-04-10 16:18 37.39906 -8.67089 35312 ft 471 kts 327°
2026-04-10 16:18 37.42528 -8.69613 34318 ft 473 kts 327°
2026-04-10 16:19 37.45148 -8.72139 33280 ft 475 kts 327°
2026-04-10 16:19 37.47780 -8.74676 32093 ft 477 kts 327°
2026-04-10 16:19 37.50437 -8.77288 30686 ft 491 kts 327°
2026-04-10 16:19 37.53134 -8.79883 29764 ft 496 kts 326°
2026-04-10 16:20 37.55904 -8.82531 29078 ft 499 kts 326°
2026-04-10 16:20 37.58732 -8.84977 28645 ft 484 kts 335°
2026-04-10 16:20 37.61763 -8.86669 28084 ft 471 kts 347°
2026-04-10 16:20 37.64899 -8.87540 27486 ft 454 kts
2026-04-10 16:21 37.68039 -8.87583 26801 ft 445 kts 11°
2026-04-10 16:21 37.71063 -8.87150 26154 ft 439 kts 14°
2026-04-10 16:21 37.74089 -8.86715 25539 ft 436 kts 13°
2026-04-10 16:21 37.77103 -8.86299 24876 ft 433 kts 13°
2026-04-10 16:22 37.80094 -8.85890 24246 ft 430 kts 13°
2026-04-10 16:22 37.83064 -8.85484 23583 ft 427 kts 13°
2026-04-10 16:22 37.85976 -8.85080 22933 ft 424 kts 13°
2026-04-10 16:22 37.88903 -8.84675 22278 ft 421 kts 13°
2026-04-10 16:23 37.91775 -8.84282 21963 ft 406 kts 13°
2026-04-10 16:23 37.94543 -8.83906 21365 ft 397 kts 13°
2026-04-10 16:23 37.97277 -8.83526 20649 ft 392 kts 13°
2026-04-10 16:23 37.99989 -8.83145 19911 ft 389 kts 13°
2026-04-10 16:24 38.02677 -8.82771 19117 ft 388 kts 13°
2026-04-10 16:24 38.05326 -8.82398 18378 ft 385 kts 13°
2026-04-10 16:24 38.07985 -8.82018 17710 ft 383 kts 12°
2026-04-10 16:24 38.10622 -8.81650 17124 ft 379 kts 12°
2026-04-10 16:25 38.13233 -8.81291 16564 ft 375 kts 12°
2026-04-10 16:25 38.15810 -8.80936 15991 ft 370 kts 12°
2026-04-10 16:25 38.18363 -8.80582 15423 ft 366 kts 12°
2026-04-10 16:25 38.20875 -8.80229 14854 ft 362 kts 12°
2026-04-10 16:26 38.23345 -8.79882 14282 ft 358 kts 12°
2026-04-10 16:26 38.25813 -8.79535 13701 ft 354 kts 12°
2026-04-10 16:26 38.28248 -8.79192 13140 ft 349 kts 11°
2026-04-10 16:26 38.30649 -8.78854 12557 ft 345 kts 11°
2026-04-10 16:27 38.33007 -8.78524 11979 ft 341 kts 11°
2026-04-10 16:27 38.35355 -8.78196 11396 ft 337 kts 11°
2026-04-10 16:27 38.37677 -8.77866 10755 ft 334 kts 11°
2026-04-10 16:27 38.39975 -8.77533 10202 ft 329 kts 11°
2026-04-10 16:28 38.42167 -8.77205 9974 ft 306 kts
2026-04-10 16:28 38.44231 -8.76914 9461 ft 294 kts
2026-04-10 16:28 38.45577 -8.76740 9055 ft 293 kts
2026-04-10 16:28 38.47598 -8.76469 8487 ft 291 kts
2026-04-10 16:29 38.49601 -8.76192 7936 ft 288 kts
2026-04-10 16:29 38.51593 -8.75915 7378 ft 286 kts
2026-04-10 16:29 38.53560 -8.75638 7063 ft 282 kts
2026-04-10 16:29 38.55530 -8.75357 6974 ft 286 kts
2026-04-10 16:30 38.57505 -8.75074 6961 ft 285 kts
2026-04-10 16:30 38.59454 -8.74799 6962 ft 285 kts
2026-04-10 16:30 38.61437 -8.74521 6962 ft 285 kts
2026-04-10 16:30 38.63410 -8.74243 6962 ft 285 kts
2026-04-10 16:31 38.65388 -8.73964 6963 ft 285 kts
2026-04-10 16:31 38.67371 -8.73680 6961 ft 285 kts
2026-04-10 16:31 38.69343 -8.73400 6961 ft 285 kts
2026-04-10 16:31 38.71292 -8.73126 6963 ft 286 kts
2026-04-10 16:32 38.73273 -8.72860 6963 ft 286 kts
2026-04-10 16:32 38.75254 -8.72587 6961 ft 285 kts
2026-04-10 16:32 38.77231 -8.72299 6962 ft 286 kts
2026-04-10 16:32 38.79188 -8.72012 6962 ft 286 kts
2026-04-10 16:33 38.81164 -8.71726 6960 ft 285 kts
2026-04-10 16:33 38.83145 -8.71443 6965 ft 286 kts
2026-04-10 16:33 38.85126 -8.71166 6961 ft 286 kts
2026-04-10 16:33 38.87106 -8.70890 6961 ft 286 kts
2026-04-10 16:34 38.89079 -8.70608 6961 ft 282 kts
2026-04-10 16:34 38.90955 -8.70335 6959 ft 260 kts
2026-04-10 16:34 38.92701 -8.70084 6963 ft 252 kts
2026-04-10 16:34 38.94456 -8.69884 6954 ft 254 kts
2026-04-10 16:35 38.96145 -8.70425 6963 ft 256 kts 334°
2026-04-10 16:35 38.97507 -8.71876 6974 ft 258 kts 307°
2026-04-10 16:35 38.98227 -8.73983 6970 ft 259 kts 278°
2026-04-10 16:35 38.98203 -8.76283 6952 ft 255 kts 259°
2026-04-10 16:36 38.97873 -8.78532 6709 ft 257 kts 256°
2026-04-10 16:36 38.97548 -8.80787 6348 ft 255 kts 259°
2026-04-10 16:36 38.97328 -8.83036 5995 ft 252 kts 263°
2026-04-10 16:36 38.97199 -8.85281 5658 ft 252 kts 265°
2026-04-10 16:37 38.97120 -8.87488 5310 ft 248 kts 266°
2026-04-10 16:37 38.97055 -8.89712 4990 ft 250 kts 266°
2026-04-10 16:37 38.96995 -8.91943 4630 ft 250 kts 267°
2026-04-10 16:37 38.96929 -8.94178 4280 ft 248 kts 266°
2026-04-10 16:38 38.96852 -8.96367 4047 ft 240 kts 266°
2026-04-10 16:38 38.96787 -8.98514 4002 ft 242 kts 266°
2026-04-10 16:38 38.96720 -9.00614 3997 ft 226 kts 266°
2026-04-10 16:38 38.96418 -9.02505 3961 ft 208 kts 243°
2026-04-10 16:39 38.95553 -9.03890 3845 ft 198 kts 218°
2026-04-10 16:39 38.94403 -9.04823 3576 ft 195 kts 205°
2026-04-10 16:39 38.93168 -9.05519 3309 ft 193 kts 200°
2026-04-10 16:39 38.91923 -9.06168 3044 ft 191 kts 201°
2026-04-10 16:40 38.90711 -9.06840 2792 ft 188 kts 202°
2026-04-10 16:40 38.89519 -9.07474 2537 ft 186 kts 201°
2026-04-10 16:40 38.88353 -9.08110 2304 ft 176 kts 201°
2026-04-10 16:40 38.87252 -9.08695 2073 ft 165 kts 201°
2026-04-10 16:41 38.86245 -9.09241 1856 ft 149 kts 201°
2026-04-10 16:41 38.85311 -9.09732 1666 ft 146 kts 200°
2026-04-10 16:41 38.84390 -9.10234 1464 ft 139 kts 202°
2026-04-10 16:41 38.83483 -9.10724 1293 ft 144 kts 201°
2026-04-10 16:42 38.82590 -9.11199 1114 ft 142 kts 204°
2026-04-10 16:42 38.81674 -9.11692 878 ft 139 kts 205°
2026-04-10 16:42 38.80771 -9.12181 709 ft 146 kts 205°
2026-04-10 16:42 38.79860 -9.12666 498 ft 140 kts 204°
2026-04-10 16:43 38.78936 -9.13161 362 ft 141 kts 204°
2026-04-10 16:43 38.78263 -9.13524 359 ft 62 kts 203°
2026-04-10 16:43 38.77986 -9.13672 359 ft 40 kts 202°
2026-04-10 16:43 38.77751 -9.13764 364 ft 30 kts 182°
2026-04-10 16:44 38.77603 -9.13759 358 ft 19 kts 177°
2026-04-10 16:44 38.77510 -9.13754 358 ft 14 kts 178°
2026-04-10 16:44 38.77410 -9.13755 357 ft 15 kts 189°
2026-04-10 16:44 38.77312 -9.13800 357 ft 14 kts 195°
2026-04-10 16:45 38.77261 -9.13729 357 ft 12 kts 96°
2026-04-10 16:45 38.77277 -9.13617 357 ft 14 kts 78°
2026-04-10 16:45 38.77297 -9.13489 357 ft 15 kts 78°
2026-04-10 16:45 38.77318 -9.13367 356 ft 14 kts 78°
2026-04-10 16:46 38.77347 -9.13277 356 ft 10 kts 40°
2026-04-10 16:46 38.77417 -9.13277 357 ft 11 kts 349°
2026-04-10 16:46 38.77495 -9.13297 357 ft 12 kts 348°
2026-04-10 16:46 38.77570 -9.13319 357 ft 9 kts 347°
2026-04-10 16:47 38.77590 -9.13299 357 ft 4 kts 59°
2026-04-10 16:47 38.77602 -9.13239 357 ft 7 kts 77°
2026-04-10 16:47 38.77607 -9.13209 357 ft 3 kts 78°
2026-04-10 16:47 38.77610 -9.13195 357 ft 0 kts 78°